Regional Weather Roundup
Issued by NWS

Home | Current Version | Previous Version | Graphics & Text | Print | Product List | Glossary On
Versions: 1 2 3 4 5 6 7 8 9 10 11 12 13 14 15 16 17 18 19 20 21 22 23 24 25 26 27 28 29 30 31 32 33 34 35 36 37 38 39 40 41 42 43 44 45 46 47 48 49 50
000
ASUS43 KLOT 200908
RWRIL

ILLINOIS REGIONAL WEATHER ROUNDUP
NATIONAL WEATHER SERVICE CHICAGO/ROMEOVILLE IL
400 AM CDT FRI APR 20 2018

NOTE: "FAIR" INDICATES FEW OR NO CLOUDS BELOW 12,000 FEET WITH NO
SIGNIFICANT WEATHER AND/OR OBSTRUCTIONS TO VISIBILITY.

* THESE STATIONS ARE NOT UNDER NWS QUALITY CONTROL. THEY ALSO MAY NOT
  REPORT WEATHER SUCH AS PRECIPITATION OR FOG.

ILZ001-002-007-009-015-016-024-201000-
NORTHWEST ILLINOIS

CITY           SKY/WX    TMP DP  RH WIND       PRES   REMARKS
MOLINE         FAIR      27  24  89 CALM      30.48R
STERLING*      FAIR      27  26  96 CALM      30.49R
SAVANNA*       FAIR      27  26  96 N3        30.50R
$$

ILZ003-004-008-010-011-017-018-201000-
NORTH CENTRAL ILLINOIS

CITY           SKY/WX    TMP DP  RH WIND       PRES   REMARKS
ROCKFORD       FAIR      27  24  89 CALM      30.49R
FREEPORT*      FAIR      28  26  89 CALM      30.50R
ROCHELLE*      FAIR      27  26  96 CALM      30.48R
DE KALB*       FAIR      32  24  72 NW6       30.47R WCI  27
PERU*          FAIR      32  28  83 CALM      30.49R
$$

ILZ005-006-012>014-019>023-201000-
NORTHEAST ILLINOIS

CITY           SKY/WX    TMP DP  RH WIND       PRES   REMARKS
CHICAGO-OHARE  FAIR      37  23  56 W6        30.45R WCI  32
CHICAGO-MIDWAY FAIR      36  24  62 W3        30.46R
AURORA         FAIR      28  23  81 NW3       30.46R
LANSING*       FAIR      30  28  94 CALM      30.46S
JOLIET*        FAIR      29  28  95 CALM      30.47S
WAUKEGAN       FAIR      34  24  67 W6        30.45R WCI  29
DUPAGE AIRPORT FAIR      29  23  78 CALM      30.45R
KANKAKEE*      FAIR      28  22  78 CALM      30.47R
WHEELING       FAIR      34  27  75 CALM      30.48R
MORRIS*        FAIR      29  24  81 NW5       30.46S WCI  23
ROMEOVILLE*    FAIR      32  26  77 CALM      30.47R
$$

LMZ740>746-201000-
SOUTHERN LAKE MICHIGAN

STATION/POSITION SKY/WX   TEMP    WIND        PRES    VSBY  WAVE
                          AIR SEA DIR/SP/G                  HT/PER
                          (F)     (DEG/KT/KT) (MB)    (MI)  (FT/S)
HARRISON CRIB              43     310/  9/  9   N/A
BURNHAM HARBOR             43     260/  4/  7   N/A
CALUMET HARBOR             38     250/  3/  4 1030.6R
BURNS HARBOR               40     350/  3/  5 1031.8R
MICHIGAN CITY              38      CALM  /  1   N/A
$$

ILZ025>027-034>036-040-047-049-050-058-095>099-201000-
WEST-CENTRAL ILLINOIS

CITY           SKY/WX    TMP DP  RH WIND       PRES   REMARKS
QUINCY         CLEAR     36  24  62 E5        30.45R WCI  32
GALESBURG*     FAIR      30  26  85 CALM      30.49R
MACOMB*        CLEAR     29  24  81 N6        30.49R WCI  23
JACKSONVILLE*  CLEAR     31  24  76 E7        30.46S WCI  24
PITTSFIELD*    CLEAR     35  28  73 NE3       30.46S
$$

ILZ028>032-037-038-041>044-048-051>054-059>061-201000-
CENTRAL ILLINOIS

CITY           SKY/WX    TMP DP  RH WIND       PRES   REMARKS
PONTIAC        FAIR      28  27  95 CALM      30.48R
BLOOMINGTON    FAIR      34  24  67 E5        30.47R WCI  30
DECATUR        FAIR      31  26  82 CALM      30.46R
PEORIA         FAIR      34  26  72 CALM      30.48R
LACON*         FAIR      27  24  90 CALM      30.48R
LINCOLN*       FAIR      32  28  86 CALM      30.47S
SPRINGFIELD    FAIR      36  28  73 NE3       30.47R
TAYLORVILLE    FAIR      33  28  81 CALM      30.47R
$$

ILZ033-039-045-046-055>057-062-063-201000-
EAST-CENTRAL ILLINOIS

CITY           SKY/WX    TMP DP  RH WIND       PRES   REMARKS
CHAMPAIGN      FAIR      31  23  72 N5        30.45S WCI  26
DANVILLE*      FAIR      29  23  76 N8        30.43S WCI  21
RANTOUL*       FAIR      31  28  88 N3        30.46R
MATTOON        FAIR      32  22  66 N3        30.44R
PARIS*         FAIR      28  23  84 CALM      30.46S
$$

ILZ079-100>102-201000-
SOUTHWEST ILLINOIS

CITY           SKY/WX    TMP DP  RH WIND       PRES   REMARKS
ALTON          CLEAR     33  27  79 CALM      30.45S
BELLEVILLE     CLEAR     41  28  60 NE5       30.44R
CAHOKIA*       CLEAR     33  29  85 CALM      30.44R
SPARTA*        CLEAR     38  32  77 NE6       30.45R WCI  34
$$

ILZ064>066-069>071-074>076-080>082-084>086-088>090-092>094-201000-
SOUTH-CENTRAL ILLINOIS

CITY           SKY/WX    TMP DP  RH WIND       PRES   REMARKS
CARBONDALE     FAIR      38  31  76 N5        30.43R WCI  34
CAIRO*         FAIR      40  32  73 NE7       30.40R
EFFINGHAM*     FAIR      38  22  54 CALM      30.47R
MARION         FAIR      33  33  99 N5        30.43R WCI  29
MT. VERNON     FAIR      39  27  62 NE6       30.44R WCI  35
CENTRALIA*     CLEAR     40  31  68 NE5       30.44R
SALEM*         FAIR      41  26  55 NE5       30.45R
METROPOLIS*    FAIR      36  31  82 CALM      30.41R
$$

ILZ067-068-072-073-078-083-087-091-201000-
SOUTHEAST ILLINOIS

CITY           SKY/WX    TMP DP  RH WIND       PRES   REMARKS
LAWRENCEVILLE  FAIR      36  21  54 NE7       30.44S WCI  30
FLORA*         FAIR      39  25  56 N3        30.45R
FAIRFIELD*     FAIR      38  26  62 N3        30.43S
HARRISBURG*    FAIR      39  28  65 N6        30.42S WCI  35
ROBINSON*      FAIR      31  21  64 CALM      30.46R
CARMI*         FAIR      37  26  64 N9        30.42S WCI  31
$$

ABBREVIATIONS USED IN REMARKS
   TC - TEMPERATURE IN CELSIUS
  WCI - WIND CHILL INDEX
   HX - HEAT INDEX
  VSB - VISIBILITY
$$





USA.gov is the U.S. government's official web portal to all federal, state and local government web resources and services.